Regional Weather Roundup
Issued by NWS

Home | Current Version | Previous Version | Graphics & Text | Print | Product List | Glossary On
Versions: 1 2 3 4 5 6 7 8 9 10 11 12 13 14 15 16 17 18 19 20 21 22 23 24 25 26 27 28 29 30 31 32 33 34 35 36 37 38 39 40 41 42 43 44 45 46 47
000
ASUS45 KBOU 310907
RWRCO

WEATHER ROUNDUP FOR COLORADO
NATIONAL WEATHER SERVICE DENVER/BOULDER CO
200 AM MST SAT JAN 31 2015

NOTE: "FAIR" INDICATES FEW OR NO CLOUDS BELOW 12000 FEET WITH NO
SIGNIFICANT WEATHER AND/OR OBSTRUCTIONS TO VISIBILITY.

COZ001>005-013-030-031-311000-
...NORTHWEST COLORADO...

CITY           SKY/WX    TMP DP  RH WIND       PRES   REMARKS
CRAIG          MIX PCPN  33  32  96 CALM      29.92F FOG
HAYDEN         CLOUDY    30  28  93 CALM      29.91F
MEEKER         SNOW      33  32  96 CALM      29.91F VSB 1/2
MOUNT WERNER   NOT AVBL
STEAMBOAT SPGS CLOUDY    31  30  96 CALM      29.91F
WALDEN         CLOUDY    30  28  93 CALM      29.93F
$$

COZ006>008-011-311000-
...WEST CENTRAL VALLEYS...

CITY           SKY/WX    TMP DP  RH WIND       PRES   REMARKS
GRAND JUNCTION LGT RAIN  38  38 100 CALM      29.91F FOG
MONTROSE       CLOUDY    38  37  97 CALM      29.93F
EAGLE          CLOUDY    34  32  93 CALM      29.94F VSB 1/2
RIFLE          LGT RAIN  36  35  96 CALM      29.91F FOG
DELTA          LGT RAIN  40  40  99 CALM      29.92F VSB 1/2
NUCLA          LGT RAIN  34  34 100 CALM      29.96F
$$

COZ017>023-064>068-311000-
...SOUTHWEST COLORADO...

CITY           SKY/WX    TMP DP  RH WIND       PRES   REMARKS
DURANGO        LGT SNOW  32  31  96 CALM      29.93F FOG
CORTEZ         MIX PCPN  36  34  92 SW9       29.92F
PAGOSA SPRINGS LGT SNOW  34  34 100 CALM      29.95F
TELLURIDE      FOG       30  30 100 W7        29.93F VSB 1/4 WCI  23
WOLF CREEK PAS SNOW      21  21 100 SW9       30.01F VSB 1/4 WCI  11
$$

COZ009-010-012-014-032>034-037-058>063-311000-
...CENTRAL COLORADO...

CITY           SKY/WX    TMP DP  RH WIND       PRES   REMARKS
ASPEN          CLOUDY    31  30  96 SE3       29.91S
BUENA VISTA    LGT SNOW  31  29  95 CALM      29.97F
COPPER MTN     LGT SNOW  27  19  74 S10       29.97F WCI  17
BERTHOUD PASS  FLURRIES  18  12  79 SE9       30.00F WCI   6
COTTONWOOD PAS LGT SNOW  30  27  86 CALM      29.98F
GUNNISON       CLOUDY    32  28  86 N9        29.95F WCI  24
KREMMLING      FLURRIES  30  28  93 CALM      29.95F
LEADVILLE      LGT SNOW  23  22  96 CALM      29.95F FOG
MONARCH PASS   CLOUDY    23  21  93 MISG      30.09F
SALIDA         CLOUDY    32  32  99 CALM      30.05F
SUNLIGHT       LGT SNOW  30  28  93 CALM        N/A
WILKERSON PASS CLOUDY   N/A N/A N/A SW3       30.01F
$$

COZ069>075-311000-
...SAN LUIS VALLEY/SANGRE DE CRISTO MOUNTAINS...

CITY           SKY/WX    TMP DP  RH WIND       PRES   REMARKS
ALAMOSA        CLOUDY    30  28  92 NW3       29.96F
LA VETA PASS   LGT SNOW  27  25  93 MISG      29.98F
SAGUACHE       CLOUDY    30  28  93 N3        29.98F
$$

COZ035-036-038>040-311000-
...NORTHERN COLORADO FRONT RANGE...

CITY           SKY/WX    TMP DP  RH WIND       PRES   REMARKS
DENVER INTL AP CLOUDY    34  25  69 N7        29.98S WCI  28
DMNS CITY PARK   N/A     37  24  60 SE2       29.98S
AURORA         CLOUDY    34  25  70 N3        29.98F
FRONT RANGE AP NOT AVBL
ERIE MUNI ARPT CLOUDY    32  28  86 CALM      29.99S
BOULDER MUN AP CLOUDY    36  30  80 CALM      29.97F
CENTENNIAL     CLOUDY    36  24  62 N3        29.97F
BROOMFIELD     CLOUDY    36  27  69 CALM      29.98F
FORT COLLINS   CLOUDY    36  25  64 N7        30.00F
LONGMONT       CLOUDY    35  29  77 CALM      30.00S
$$

COZ041-046-047-076>085-087-088-311000-
...PIKES PEAK/PALMER DIVIDE AND SOUTHERN FOOTHILLS...

CITY           SKY/WX    TMP DP  RH WIND       PRES   REMARKS
COLO. SPRINGS  CLOUDY    38  25  59 N13       29.96F
A. F. ACADEMY  CLOUDY    34  26  71 N8        29.96F WCI  28
ELLICOTT       CLOUDY   N/A N/A N/A W5        29.95F
FALCON         CLOUDY    34  24  67 N10       29.97F WCI  26
FORT CARSON    CLOUDY    38  28  66 N6        29.94F
LIMON          CLOUDY    30  28  92 W7        29.97S WCI  23
MONUMENT HILL  CLOUDY    32  28  86 N3        29.97F
TRINIDAD       CLOUDY    34  30  85 SW15      29.97F WCI  24
$$

COZ042>045-048>051-090-091-311000-
...NORTHEAST COLORADO...

CITY           SKY/WX    TMP DP  RH WIND       PRES   REMARKS
GREELEY ARPT   CLOUDY    34  21  60 N5        29.97F WCI  30
AKRON          CLOUDY    31  29  92 N8        29.95F WCI  23
BURLINGTON     CLOUDY    34  33  96 SW14      29.98F WCI  25
WRAY           CLOUDY    36  34  94 E6        29.98F
STERLING       CLOUDY    34  32  93 NE5       29.97F WCI  30
HOLYOKE        NOT AVBL
FORT MORGAN    CLOUDY    35  27  74 N10       29.98S WCI  27
$$

COZ086-089-092>099-311000-
...SOUTHEAST COLORADO...

CITY           SKY/WX    TMP DP  RH WIND       PRES   REMARKS
PUEBLO         CLOUDY    36  35  96 E5        29.97F
LA JUNTA       CLOUDY    38  36  92 NW3       29.97F
LAMAR          CLOUDY    38  36  92 SW5       29.96F
SPRINGFIELD      N/A     33  32  96 S20G33    29.99F WCI  21
$$


USA.gov is the U.S. government's official web portal to all federal, state and local government web resources and services.